METEOR 2-11 DEB

Satellite information

Favourite Embed

Satellite Type and Status

DEBRISIN ORBIT

Key statistics

Satellite METEOR 2-11 DEB at a glance.

Uptime

15084

Days in orbit

Revolutions

≈ 14.0

Per day

Orbit

LEO

Low Earth Orbit

Inclination

82.5

Latest

Satellite identification and parameters

Extended collection of information and parameters for METEOR 2-11 DEB.

Object identification

Identified? True

Debris? True

Object name: METEOR 2-11 DEB

International designator: 1984-072Z

Object number (NORAD): 60004

Object ID (CCSDS): 60004

Country: COMMONWEALTH OF INDEPENDENT STATES (CIS)

Current information (Y/N): Y

RCS size: SMALL

Orbital parameters

Period: 102.859 minutes

Inclination: 82.5156 deg

SMA: 7272.027 km

Apoapsis: 899.315 km

Periapsis: 888.469 km

RAAN: 194.751 deg

Eccentricy: 0.00074573

Argument of periapsis: 216.7998 deg

Mean anomaly: 143.266 deg

Mean motion: 13.99972726 rev/day

Mean motion (dot): 0.00003045 rev/day2

B* drag term: 0.002061258 1/REarth

Two-line elements (TLE)

Creation date: Oct. 21, 2025, 6:24 p.m.

Reference frame: TEME

Reference center: EARTH

Epoch: Oct. 20, 2025, 11:40 p.m. UTC

TLE line 0: 0 METEOR 2-11 DEB

TLE line 1: 1 60004U 84072Z 25293.98634833 .00003045 00000-0 20613-2 0 9992

TLE line 2: 2 60004 82.5156 194.7510 0007457 216.7998 143.2660 13.99972726430735

Live tracking on map

Real-time ground track for satellite METEOR 2-11 DEB.

In-orbit conjunctions

A list of the most updated potential collisions computed for object METEOR 2-11 DEB.

Target Orbit TCA Probability of collision Miss distance Type
CZ-6A DEB LEO 2024-09-28 20:42:35 0.0002171969 347.0 (m) DEBRIS
COSMOS 1275 DEB LEO 2024-06-30 21:43:13 0.0001422367 395.0 (m) DEBRIS

Associated space launch

Second generation soviet meteorological satellite

METEOR 2-11 DEB was lifted into orbit during the mission ‘Tsiklon-3 | Meteor-2 11’, on board a Tsiklon-3 space rocket.

The launch took place on July 5, 1984, 3:35 a.m. from 32/2.

For more information about the launch, click the button.

Launch to space Tsiklon-3 | Meteor-2 11
Tsiklon-3 | Meteor-2 11

Agency: N/A

Status: Launch Successful

Launch date: July 5, 1984, 3:35 a.m. UTC

Rocket: Tsiklon-3

Launch pad: 32/2

Location: Plesetsk Cosmodrome, Russian Federation

...

Latest news about this satellite

There are no fresh news available about this satellite. Check back as we update our databases every day.


Newsletter sign-up

Weekly statistics, charts and insights to help you stay on top of the space industry.